Regional Weather Roundup
Issued by NWS Jackson, KY

Home | Current Version | Previous Version | Graphics & Text | Print | Product List | Glossary On
Versions: 1 2 3 4 5 6 7 8 9 10 11 12 13 14 15 16 17 18 19 20 21 22 23 24 25 26 27 28 29 30 31 32 33 34 35 36 37 38 39 40 41 42 43 44 45 46 47 48 49 50
000
ASUS43 KJKL 292010
RWRJKL

EAST KENTUCKY HOURLY WEATHER ROUNDUP
NATIONAL WEATHER SERVICE JACKSON KY
400 PM EDT WED JUL 29 2015

NOTE: "FAIR" INDICATES FEW OR NO CLOUDS BELOW 12,000 FEET WITH
NO SIGNIFICANT WEATHER AND/OR OBSTRUCTIONS TO VISIBILITY.

* THESE REPORTS ARE NOT UNDER NWS QUALITY CONTROL AND MAY NOT
  REPORT WEATHER SUCH AS PRECIPITATION AND FOG.

KYZ079-080-083-085-087-088-110-112-115-119-120-292100
...EASTERN KENTUCKY...

CITY           SKY/WX    TMP DP  RH WIND       PRES   REMARKS
JACKSON        SUNNY     88  70  55 CALM      30.01F HX  93
LONDON         MOSUNNY   87  71  58 CALM      30.02F HX  93
SOMERSET*      PTSUNNY   84  72  65 CALM      30.02F
MONTICELLO*    MOSUNNY   94  76  55 CALM      30.03F HX 106
WILLIAMSBURG*  MOSUNNY   86  75  70 N3        30.01F HX  95
MIDDLESBORO*   MOSUNNY   89  72  55 NE8       30.01F HX  96
HAZARD APT*    CLEAR     90  70  51 CALM      30.00F HX  95
BLACK MTN*       N/A     79  68  69 N5          N/A
PIKEVILLE APT* MOSUNNY   88  72  58 SW3       30.02F HX  94
BIG SANDY*     CLEAR     88  72  57 SW6       30.00F HX  94
MOREHEAD APT*  CLEAR     90  73  58 SW6       30.00F HX  98
$$

KYZ035-036-041-042-044-050-067-078-099-292100
...CENTRAL KENTUCKY...

CITY           SKY/WX    TMP DP  RH WIND       PRES   REMARKS
MT STERLING*   MOSUNNY   88  73  62 CALM      30.00F HX  96
FLEMING/MASON* SUNNY    N/A N/A N/A S5        29.98F
DANVILLE*      PTSUNNY   73  73 100 S3        30.02F
RICHMOND*      PTSUNNY   86  73  66 W9        30.00F HX  93
LEXINGTON      PTSUNNY   80  75  84 CALM      29.99F
FRANKFORT      TSTM      78  71  79 N12       29.98S
$$

KYZ091>093-OHZ055-061-077-WVZ005-015-034-035-042-292100
...SOUTHERN OHIO/WEST VIRGINIA...

CITY           SKY/WX    TMP DP  RH WIND       PRES   REMARKS
COLUMBUS       PTSUNNY   89  70  53 S7G16     29.93F HX  94
DAYTON         PTSUNNY   89  75  63 W6        29.95F HX  99
WILMINGTON     MOSUNNY   89  72  56 S5        29.95F HX  96
HUNTINGTON     PTSUNNY   89  71  55 W3        29.95F HX  95
CHARLESTON     PTSUNNY   87  72  60 SE5       29.96F HX  93
PINEVILLE*     PTSUNNY   88  73  62 MISG      30.08F HX  95
BECKLEY        CLOUDY    77  68  73 SE7       30.09F
BLUEFIELD      MOSUNNY   84  67  56 S5        30.10F
$$

VAZ002-007-008-TNZ017-027-036-066-071-292100
...SOUTHWEST VIRGINIA/EAST TENNESSEE...

CITY           SKY/WX    TMP DP  RH WIND       PRES   REMARKS
WISE*          MOSUNNY   88  64  45 NW5       30.11F
ABINGDON*      MOSUNNY   87  66  48 CALM      30.05F
BRISTOL        MOSUNNY   90  70  51 W7        30.01F HX  95
KNOXVILLE      PTSUNNY   90  71  53 VRB3      29.98F HX  96
OAK RIDGE      PTSUNNY   90  71  53 CALM      30.00F HX  96
CROSSVILLE     MOSUNNY   88  71  57 NW8       30.05F HX  94
NASHVILLE      PTSUNNY   93  76  57 CALM      29.99F HX 105
$$

...KEY TO REMARKS...
VSB - VISIBILITY IN MILES
WCI - WIND CHILL INDEX
HX  - HEAT INDEX

$$



USA.gov is the U.S. government's official web portal to all federal, state and local government web resources and services.